Fortunia — V2OG3 — position and weather

sailwx.info

Track history (hours):
 
Tides and Currents Weather Stations Pressure Air Temp Water Temp Dewpoint Dewpoint Depression Visibility Wind Speed Wind Dir Waves Ship Positions

Fortunia

Last reported at 2014-Oct-25 12:29 UTC. Time now 2014-Oct-25 14:29 UTC.
Position N 40°22' E 001°34'.

Length 121 m; draft 6.5 m.

Type: Ship. MMSI: 304010638.

Date/timePositionNaut miles runAvg speedWind from/ knotsBaromVisibWave heightAir tempDewpointWater temp
2014-Oct-25 12:29N 40°22' E 001°34'1310.8
2014-Oct-25 11:19N 40°11' E 001°27'810.6
2014-Oct-25 10:33N 40°03' E 001°22'5310.6
2014-Oct-25 05:32N 39°16' E 000°51'1110.9
2014-Oct-25 04:32N 39°07' E 000°44'1110.9
2014-Oct-25 03:33N 38°57' E 000°38'1410.5
2014-Oct-25 02:14N 38°45' E 000°30'710.1
2014-Oct-25 01:33N 38°39' E 000°25'1010.1
2014-Oct-25 00:33N 38°31' E 000°18'1010.3
2014-Oct-24 23:33N 38°22' E 000°10'1010.1
2014-Oct-24 22:33N 38°13' E 000°03'10 9.9
2014-Oct-24 21:33N 38°05' W 000°04'1010.4
2014-Oct-24 20:33N 37°56' W 000°11'1010.2
2014-Oct-24 19:33N 37°48' W 000°18'1110.5
2014-Oct-24 18:33N 37°39' W 000°25'1010.4
2014-Oct-24 17:33N 37°31' W 000°34'1010.0
2014-Oct-24 16:33N 37°31' W 000°46'1010.5
2014-Oct-24 15:33N 37°33' W 000°59'3 0.2
2014-Oct-24 02:24N 37°36' W 000°59'6 7.4
2014-Oct-24 01:33N 37°31' W 000°53'1111.0
2014-Oct-24 00:33N 37°29' W 000°40'1111.1
2014-Oct-23 23:33N 37°26' W 000°26'1110.8
2014-Oct-23 22:33N 37°24' W 000°13'1110.7
2014-Oct-23 21:33N 37°22' E 000°00'1110.7
2014-Oct-23 20:33N 37°20' E 000°13'1110.8
2014-Oct-23 19:33N 37°18' E 000°27'1111.1
2014-Oct-23 18:33N 37°16' E 000°40'1411.0
2014-Oct-23 17:19N 37°13' E 000°57'  
2014-Oct-20 03:32N 37°04' E 003°02'5310.4
2014-Oct-19 22:25N 37°55' E 002°44'910.6
2014-Oct-19 21:34N 38°04' E 002°41'1610.8
2014-Oct-19 20:06N 38°20' E 002°36'610.6
2014-Oct-19 19:33N 38°25' E 002°34'1110.5
2014-Oct-19 18:33N 38°35' E 002°30'1010.5
2014-Oct-19 17:33N 38°45' E 002°27'1010.4
2014-Oct-19 16:33N 38°55' E 002°23'1010.3
2014-Oct-19 15:33N 39°05' E 002°20'1010.3
2014-Oct-19 14:33N 39°15' E 002°16'1110.2
2014-Oct-19 13:31N 39°25' E 002°13'1110.7
2014-Oct-19 12:28N 39°36' E 002°10'1010.8
2014-Oct-19 11:33N 39°46' E 002°10'1210.5
2014-Oct-19 10:24N 39°58' E 002°10'2111.1
2014-Oct-19 08:31N 40°19' E 002°10'59 4.0
2014-Oct-18 17:29N 41°19' E 002°09'3 1.4
2014-Oct-18 15:32N 41°21' E 002°10'0 0.0
2014-Oct-18 14:30N 41°21' E 002°10'0 0.0
2014-Oct-18 12:33N 41°21' E 002°10'0 0.0
2014-Oct-18 11:12N 41°21' E 002°10'0 0.0
2014-Oct-18 10:32N 41°21' E 002°10'0 0.0
2014-Oct-18 08:16N 41°21' E 002°10'0 0.7
2014-Oct-18 07:33N 41°21' E 002°10'7 7.4
2014-Oct-18 06:33N 41°14' E 002°08'1110.5
2014-Oct-18 05:33N 41°05' E 001°59'1110.7
2014-Oct-18 04:33N 40°57' E 001°51'1110.8
2014-Oct-18 03:33N 40°48' E 001°43'1110.9
2014-Oct-18 02:33N 40°39' E 001°34'1110.7
2014-Oct-18 01:33N 40°31' E 001°26'1110.7
2014-Oct-18 00:33N 40°24' E 001°15'1110.9
2014-Oct-17 23:33N 40°18' E 001°03'1111.0
2014-Oct-17 22:33N 40°11' E 000°51'1110.9
2014-Oct-17 21:33N 40°05' E 000°40'1110.9
2014-Oct-17 20:33N 39°58' E 000°28'1410.9
2014-Oct-17 19:18N 39°49' E 000°16'910.7
2014-Oct-17 18:27N 39°42' E 000°07'1211.0
2014-Oct-17 17:24N 39°34' W 000°03'5 6.4
2014-Oct-17 16:33N 39°31' W 000°09'9 8.7
2014-Oct-17 15:33N 39°26' W 000°18'1 1.2
2014-Oct-17 14:34N 39°26' W 000°20'0 0.0
2014-Oct-17 13:26N 39°26' W 000°20'0 0.0
2014-Oct-17 12:33N 39°26' W 000°20'1 0.2
2014-Oct-17 06:31N 39°27' W 000°19'2 2.6
2014-Oct-17 05:33N 39°25' W 000°17'5610.5
2014-Oct-17 00:12N 38°39' E 000°25'812.1
2014-Oct-16 23:33N 38°33' E 000°20'1212.0
2014-Oct-16 22:33N 38°23' E 000°11'1612.2
2014-Oct-16 21:16N 38°10' E 000°00'912.3
2014-Oct-16 20:33N 38°03' W 000°06'1612.3
2014-Oct-16 19:13N 37°49' W 000°17'812.6
2014-Oct-16 18:33N 37°42' W 000°23'1312.5
2014-Oct-16 17:33N 37°32' W 000°33'1212.3
2014-Oct-16 16:33N 37°32' W 000°48'5 0.3
2014-Oct-15 22:32N 37°31' W 000°54'1111.5
2014-Oct-15 21:33N 37°29' W 000°40'1111.3
2014-Oct-15 20:33N 37°26' W 000°26'1110.7
2014-Oct-15 19:33N 37°24' W 000°13'1010.4
2014-Oct-15 18:33N 37°22' W 000°00'1010.3
2014-Oct-15 17:32N 37°20' E 000°13'  
Track history (hours):
 
Tides and Currents Weather Stations Pressure Air Temp Water Temp Dewpoint Dewpoint Depression Visibility Wind Speed Wind Dir Waves Ship Positions

Fortunia

Last reported at 2014-Oct-25 12:29 UTC. Time now 2014-Oct-25 14:29 UTC.
Position N 40°22' E 001°34'.

Length 121 m; draft 6.5 m.

Type: Ship. MMSI: 304010638.

Date/timePositionNaut miles runAvg speedWind from/ knotsBaromVisibWave heightAir tempDewpointWater temp
2014-Oct-25 12:29N 40°22' E 001°34'1310.8
2014-Oct-25 11:19N 40°11' E 001°27'810.6
2014-Oct-25 10:33N 40°03' E 001°22'5310.6
2014-Oct-25 05:32N 39°16' E 000°51'1110.9
2014-Oct-25 04:32N 39°07' E 000°44'1110.9
2014-Oct-25 03:33N 38°57' E 000°38'1410.5
2014-Oct-25 02:14N 38°45' E 000°30'710.1
2014-Oct-25 01:33N 38°39' E 000°25'1010.1
2014-Oct-25 00:33N 38°31' E 000°18'1010.3
2014-Oct-24 23:33N 38°22' E 000°10'1010.1
2014-Oct-24 22:33N 38°13' E 000°03'10 9.9
2014-Oct-24 21:33N 38°05' W 000°04'1010.4
2014-Oct-24 20:33N 37°56' W 000°11'1010.2
2014-Oct-24 19:33N 37°48' W 000°18'1110.5
2014-Oct-24 18:33N 37°39' W 000°25'1010.4
2014-Oct-24 17:33N 37°31' W 000°34'1010.0
2014-Oct-24 16:33N 37°31' W 000°46'1010.5
2014-Oct-24 15:33N 37°33' W 000°59'3 0.2
2014-Oct-24 02:24N 37°36' W 000°59'6 7.4
2014-Oct-24 01:33N 37°31' W 000°53'1111.0
2014-Oct-24 00:33N 37°29' W 000°40'1111.1
2014-Oct-23 23:33N 37°26' W 000°26'1110.8
2014-Oct-23 22:33N 37°24' W 000°13'1110.7
2014-Oct-23 21:33N 37°22' E 000°00'1110.7
2014-Oct-23 20:33N 37°20' E 000°13'1110.8
2014-Oct-23 19:33N 37°18' E 000°27'1111.1
2014-Oct-23 18:33N 37°16' E 000°40'1411.0
2014-Oct-23 17:19N 37°13' E 000°57'  
2014-Oct-20 03:32N 37°04' E 003°02'5310.4
2014-Oct-19 22:25N 37°55' E 002°44'910.6
2014-Oct-19 21:34N 38°04' E 002°41'1610.8
2014-Oct-19 20:06N 38°20' E 002°36'610.6
2014-Oct-19 19:33N 38°25' E 002°34'1110.5
2014-Oct-19 18:33N 38°35' E 002°30'1010.5
2014-Oct-19 17:33N 38°45' E 002°27'1010.4
2014-Oct-19 16:33N 38°55' E 002°23'1010.3
2014-Oct-19 15:33N 39°05' E 002°20'1010.3
2014-Oct-19 14:33N 39°15' E 002°16'1110.2
2014-Oct-19 13:31N 39°25' E 002°13'1110.7
2014-Oct-19 12:28N 39°36' E 002°10'1010.8
2014-Oct-19 11:33N 39°46' E 002°10'1210.5
2014-Oct-19 10:24N 39°58' E 002°10'2111.1
2014-Oct-19 08:31N 40°19' E 002°10'59 4.0
2014-Oct-18 17:29N 41°19' E 002°09'3 1.4
2014-Oct-18 15:32N 41°21' E 002°10'0 0.0
2014-Oct-18 14:30N 41°21' E 002°10'0 0.0
2014-Oct-18 12:33N 41°21' E 002°10'0 0.0
2014-Oct-18 11:12N 41°21' E 002°10'0 0.0
2014-Oct-18 10:32N 41°21' E 002°10'0 0.0
2014-Oct-18 08:16N 41°21' E 002°10'0 0.7
2014-Oct-18 07:33N 41°21' E 002°10'7 7.4
2014-Oct-18 06:33N 41°14' E 002°08'1110.5
2014-Oct-18 05:33N 41°05' E 001°59'1110.7
2014-Oct-18 04:33N 40°57' E 001°51'1110.8
2014-Oct-18 03:33N 40°48' E 001°43'1110.9
2014-Oct-18 02:33N 40°39' E 001°34'1110.7
2014-Oct-18 01:33N 40°31' E 001°26'1110.7
2014-Oct-18 00:33N 40°24' E 001°15'1110.9
2014-Oct-17 23:33N 40°18' E 001°03'1111.0
2014-Oct-17 22:33N 40°11' E 000°51'1110.9
2014-Oct-17 21:33N 40°05' E 000°40'1110.9
2014-Oct-17 20:33N 39°58' E 000°28'1410.9
2014-Oct-17 19:18N 39°49' E 000°16'910.7
2014-Oct-17 18:27N 39°42' E 000°07'1211.0
2014-Oct-17 17:24N 39°34' W 000°03'5 6.4
2014-Oct-17 16:33N 39°31' W 000°09'9 8.7
2014-Oct-17 15:33N 39°26' W 000°18'1 1.2
2014-Oct-17 14:34N 39°26' W 000°20'0 0.0
2014-Oct-17 13:26N 39°26' W 000°20'0 0.0
2014-Oct-17 12:33N 39°26' W 000°20'1 0.2
2014-Oct-17 06:31N 39°27' W 000°19'2 2.6
2014-Oct-17 05:33N 39°25' W 000°17'5610.5
2014-Oct-17 00:12N 38°39' E 000°25'812.1
2014-Oct-16 23:33N 38°33' E 000°20'1212.0
2014-Oct-16 22:33N 38°23' E 000°11'1612.2
2014-Oct-16 21:16N 38°10' E 000°00'912.3
2014-Oct-16 20:33N 38°03' W 000°06'1612.3
2014-Oct-16 19:13N 37°49' W 000°17'812.6
2014-Oct-16 18:33N 37°42' W 000°23'1312.5
2014-Oct-16 17:33N 37°32' W 000°33'1212.3
2014-Oct-16 16:33N 37°32' W 000°48'5 0.3
2014-Oct-15 22:32N 37°31' W 000°54'1111.5
2014-Oct-15 21:33N 37°29' W 000°40'1111.3
2014-Oct-15 20:33N 37°26' W 000°26'1110.7
2014-Oct-15 19:33N 37°24' W 000°13'1010.4
2014-Oct-15 18:33N 37°22' W 000°00'1010.3
2014-Oct-15 17:32N 37°20' E 000°13'  

Dump ship's entire track history